This demonstration page uses our WeatherBlox Daily Observations layout. Learn more.

Left ArrowRight Arrow

Hourly Observations for May 6, 2018

Temp ( °F °C ) Dew Point ( °F °C ) Humidity (%) Winds ( mph kmh ) Pressure ( in mb ) Visibility ( mi km ) Precip ( " mm )
12:51 am 00:51 Clear 66 18.9 17 -8.3 15 15 E 7 11 29.92 1013 10 16 0.00 0.00
1:51 am 01:51 Clear 66 18.9 17 -8.3 15 15 SE 8 13 29.93 1013 10 16 0.00 0.00
2:51 am 02:51 Clear 63 17.2 18 -7.8 17 17 ESE 6 9 29.93 1014 10 16 0.00 0.00
3:51 am 03:51 Clear 62 16.7 19 -7.2 19 19 ESE 6 9 29.93 1014 10 16 0.00 0.00
4:51 am 04:51 Clear 65 18.3 19 -7.2 17 17 E 12 19 29.93 1014 10 16 0.00 0.00
5:51 am 05:51 Sunny 69 20.6 19 -7.2 15 15 E 10 17 29.95 1014 10 16 0.00 0.00
6:51 am 06:51 Sunny 73 22.8 20 -6.7 13 13 ESE 10 17 29.97 1015 10 16 0.00 0.00
7:51 am 07:51 Sunny 80 26.7 19 -7.2 10 10 ESE 10 17 29.99 1016 10 16 0.00 0.00
8:51 am 08:51 Sunny 83 28.3 19 -7.2 9 9 E 12 19 29.98 1015 10 16 0.00 0.00
9:51 am 09:51 Sunny 87 30.6 19 -7.2 8 8 E 15 24 29.97 1015 10 16 0.00 0.00
10:51 am 10:51 Sunny 90 32.2 20 -6.7 8 8 SSE 13 20 29.95 1014 10 16 0.00 0.00
11:51 am 11:51 Sunny 92 33.3 19 -7.2 7 7 VRB 6 9 29.93 1013 10 16 0.00 0.00
12:51 pm 12:51 Sunny 94 34.4 17 -8.3 6 6 VRB 5 7 29.90 1013 10 16 0.00 0.00
1:51 pm 13:51 Sunny 95 35 18 -7.8 6 6 SSE 7 11 29.87 1012 10 16 0.00 0.00
2:51 pm 14:51 Sunny 96 35.6 16 -8.9 5 5 VRB 6 9 29.86 1011 10 16 0.00 0.00
3:51 pm 15:51 Sunny 95 35 16 -8.9 5 5 Calm 29.84 1010 10 16 0.00 0.00
4:51 pm 16:51 Sunny 96 35.6 18 -7.8 6 6 Calm 29.81 1010 10 16 0.00 0.00
5:51 pm 17:51 Sunny 94 34.4 18 -7.8 6 6 Calm 29.80 1009 10 16 0.00 0.00
6:51 pm 18:51 Sunny 91 32.8 18 -7.8 7 7 E 5 7 29.79 1009 10 16 0.00 0.00
7:51 pm 19:51 Clear 83 28.3 18 -7.8 9 9 NE 7 11 29.81 1010 10 16 0.00 0.00
8:51 pm 20:51 Clear 82 27.8 18 -7.8 9 9 VRB 7 11 29.82 1010 10 16 0.00 0.00
9:51 pm 21:51 Clear 79 26.1 21 -6.1 11 11 ESE 3 6 29.84 1011 10 16 0.00 0.00
10:51 pm 22:51 Clear 74 23.3 18 -7.8 12 12 ESE 6 9 29.84 1011 10 16 0.00 0.00
11:51 pm 23:51 Clear 75 23.9 19 -7.2 12 12 E 8 13 29.85 1011 10 16 0.00 0.00

Powered by AerisWeather